Location: Champs
(48.8539°N, 2.6040°E)
Time: 00:20:19
(UTC+00:00)

DMSP 5D-2 F13 DEB - Pass Details

Date: 17 August 2022
Orbit: 710 x 774 km, 98.8° (Epoch: 28 September)

Event Time Altitude Azimuth Distance (km) Brightness Sun altitude
Exits shadow 21:09:47 - 78° (ENE) 2,388 ? -18.2°
Reaches altitude 10° 21:10:07 10° 74° (ENE) 2,334 ? -18.2°
Maximum altitude 21:12:08 12° 51° (NE) 2,176 ? -18.4°
Drops below altitude 10° 21:14:10 10° 27° (NNE) 2,345 ? -18.6°
Sets 21:17:56 0° 360° (N) 3,281 ? -19.1°
